Location: C�mpuri de-Sus
(45.9500°N, 22.5500°E)
Time: 13:31:08
(UTC+00:00)

DMSP B5D2-2 - Pass Details

Date: 24 October 2021
Orbit: 789 x 806 km, 98.3° (Epoch: 06 December)

Event Time Altitude Azimuth Distance (km) Brightness Sun altitude
Rises 17:42:25 0° 12° (NNE) 3,319 7.3 -23.9°
Reaches altitude 10° 17:44:46 10° 11° (N) 2,381 6.5 -24.3°
Maximum altitude 17:50:01 76° 286° (WNW) 825 4.2 -25.2°
Drops below altitude 10° 17:55:13 10° 202° (SSW) 2,353 6.6 -26.1°
Sets 17:57:31 0° 201° (SSW) 3,276 7.4 -26.5°
